Wind_Speed
22 22 21 19 22 26 31 33 38 42 46 47 48 52 52 53 54 51 42 38 37 39 35 31 31 31 30 31 32 35 36 37 39 39 41 41 39 39 41 41 41 41 39
21 23 24 27 27 30 34 34 35 37 41 45 48 50 53 54 46 40 38 38 33 28 30 29 29 30 32 32 34 36 36 38 40 41 39 39 38 40 42 41 37 36 35
27 28 28 30 32 35 35 35 39 41 43 46 47 51 56 48 40 37 31 26 27 29 33 32 31 32 34 35 34 35 37 38 39 39 39 39 40 37 36 35 34 32 31
32 34 33 37 36 33 35 38 40 42 45 48 51 54 46 37 37 28 24 27 28 31 32 33 32 33 36 36 34 36 37 38 37 36 38 38 36 33 33 34 29 29 28
34 35 32 34 34 35 37 40 42 46 49 51 54 49 34 37 30 25 26 30 32 32 32 33 32 35 39 36 35 36 38 36 34 37 36 34 32 31 31 31 30 26 26
31 29 30 32 34 35 37 42 48 51 54 53 52 33 37 34 24 26 29 34 35 32 33 33 33 34 37 34 34 36 34 33 35 36 33 32 31 32 31 30 29 28 23
25 27 29 32 33 34 41 46 50 54 55 50 34 40 44 24 23 28 33 34 33 32 33 33 33 36 33 32 34 32 30 33 35 34 33 33 32 32 30 30 28 26 21
24 29 31 34 38 44 48 50 52 60 48 48 41 45 28 22 27 32 32 31 31 32 32 32 33 33 31 32 31 28 28 30 30 30 32 31 30 30 30 29 28 25 18
28 31 34 37 41 48 57 54 53 48 48 42 43 28 24 26 30 31 31 30 30 30 31 31 33 31 29 31 29 26 27 27 27 28 28 28 28 29 30 29 27 24 17
29 32 36 43 53 41 46 54 46 43 42 43 31 26 28 29 30 30 29 29 30 30 30 31 31 29 30 30 28 25 26 25 24 24 25 27 29 28 28 27 27 24 20
27 32 38 42 41 44 47 39 40 40 43 30 28 28 30 31 30 30 30 31 30 31 30 30 29 29 29 29 27 25 25 23 22 22 23 25 27 27 25 24 25 25 21
27 30 30 34 38 37 43 43 42 37 32 30 32 33 33 33 32 31 30 31 32 32 29 30 30 29 29 28 27 24 24 23 21 20 21 23 25 25 23 21 21 21 21
30 32 31 33 36 37 35 35 36 36 35 36 37 37 37 35 34 32 31 31 32 33 31 31 31 31 29 27 27 24 24 23 22 20 19 21 22 23 22 19 19 21 19
30 28 28 29 32 34 37 39 40 38 39 40 40 40 38 37 36 34 35 35 34 33 32 32 33 33 30 26 27 26 24 24 23 22 19 21 21 20 21 21 18 19 17
26 28 30 32 34 36 38 39 39 40 41 42 42 41 41 40 37 36 37 37 37 35 35 34 35 34 31 27 27 27 25 25 24 23 21 21 21 21 20 21 20 18 19
26 29 31 33 34 36 37 39 38 40 41 43 44 46 45 43 42 41 39 39 39 37 38 38 37 35 33 29 27 27 27 24 24 23 22 21 21 20 19 19 19 19 18
28 30 32 33 35 37 39 42 45 43 45 46 48 49 50 48 45 45 41 40 42 40 39 37 37 35 32 30 29 29 26 24 25 22 22 21 21 20 18 18 18 17 17
31 33 35 37 39 42 44 47 50 52 53 52 53 55 54 52 49 45 43 40 45 38 37 36 36 29 28 28 29 29 26 25 24 22 22 21 21 20 17 16 17 17 16
33 36 38 41 44 47 49 51 53 54 55 56 55 54 51 48 44 42 38 42 44 44 43 38 33 31 30 27 27 30 28 25 24 23 23 22 22 20 17 14 15 16 15
37 40 43 46 48 49 50 52 52 53 52 51 49 47 45 44 43 39 37 35 34 39 39 30 28 27 31 28 26 25 24 25 25 23 21 21 20 20 18 14 14 15 15
42 44 46 48 50 51 52 52 51 50 49 47 44 42 41 39 38 37 33 37 39 38 29 29 30 30 28 33 34 29 26 25 25 23 20 19 18 18 16 15 14 14 14
44 46 49 50 52 52 50 49 47 46 45 44 43 40 38 34 30 30 24 18 22 27 28 30 30 29 27 28 30 30 30 27 24 22 21 21 21 20 19 16 15 13 13
47 49 50 50 49 48 46 44 43 42 42 40 39 38 35 32 27 26 22 23 23 27 28 26 27 25 24 23 22 23 24 27 24 22 21 21 21 21 20 18 16 14 13
48 50 50 49 48 45 43 42 40 39 38 37 36 34 32 30 24 19 20 23 18 23 24 24 23 21 19 17 21 25 25 25 22 21 21 22 22 22 22 19 17 15 14
49 49 48 47 45 42 41 39 38 37 36 35 34 32 31 29 25 21 23 26 27 25 25 24 19 20 16 14 15 16 19 20 22 21 22 23 24 23 23 22 19 17 15
47 47 45 43 41 40 38 37 37 36 34 33 32 31 30 29 28 28 23 23 24 27 30 25 23 24 22 22 23 21 20 23 27 26 28 30 26 25 24 23 22 19 18
Wind_Direction
287 288 293 299 299 298 294 296 294 295 293 297 299 302 305 304 301 305 314 306 296 295 302 303 310 311 309 308 310 311 308 306 305 305 306 308 307 306 305 303 300 297 296
289 287 284 290 295 299 294 289 300 298 298 298 300 304 303 299 300 314 309 301 302 308 311 313 316 318 315 310 305 306 307 306 306 308 308 309 310 309 306 303 302 302 299
284 283 284 291 296 301 297 298 295 296 298 301 307 304 306 301 312 311 302 303 307 313 318 322 325 323 319 313 308 309 308 306 307 309 310 311 312 309 303 302 303 301 299
279 282 289 296 297 297 293 294 295 299 299 302 300 302 297 311 314 303 302 303 312 318 318 317 315 312 321 315 309 309 308 309 310 309 312 312 310 307 306 308 306 301 297
287 290 293 294 291 292 292 293 292 291 292 297 301 297 307 313 303 303 306 308 317 315 313 311 313 299 311 311 309 311 309 309 311 311 314 312 310 310 311 314 313 308 308
285 287 285 283 287 290 292 287 286 289 286 288 294 295 314 306 301 303 303 307 307 310 310 307 310 306 307 308 310 309 309 311 312 314 315 314 314 314 315 318 318 316 317
279 283 286 293 291 291 286 289 289 285 284 284 284 305 308 298 295 293 298 301 304 306 305 305 305 306 306 309 310 310 311 312 313 316 316 315 316 316 317 322 321 320 318
287 287 291 290 287 290 293 289 293 281 284 281 299 304 300 295 289 297 297 298 301 305 306 305 306 306 307 310 310 310 311 311 313 313 313 314 315 316 318 323 324 322 320
290 290 293 295 288 284 266 265 281 283 283 295 302 293 290 285 296 295 296 300 303 302 302 306 305 306 305 310 310 309 310 310 312 312 314 316 318 318 319 322 323 320 316
285 289 290 287 283 297 288 291 287 289 296 299 293 284 288 298 297 296 297 298 299 299 301 303 307 305 306 310 308 305 308 308 310 312 314 319 321 318 315 318 321 322 316
280 284 290 296 291 291 288 291 296 295 299 291 289 294 298 299 299 297 295 296 296 295 297 301 303 300 303 307 305 302 305 307 308 310 317 324 325 322 317 317 320 320 319
289 289 293 293 285 290 293 295 294 296 294 291 294 296 297 298 297 295 293 293 293 294 296 297 298 296 299 302 302 298 302 303 303 306 317 324 331 331 325 320 320 319 318
294 295 293 288 287 289 292 295 296 297 295 295 295 295 296 296 296 295 292 291 291 293 294 292 292 293 292 295 298 295 295 298 299 300 310 320 330 336 335 332 327 325 320
292 293 293 293 294 295 296 296 296 296 294 294 293 293 293 295 295 294 292 292 291 291 292 288 287 288 289 286 293 293 288 292 293 295 303 312 321 329 338 341 335 328 320
294 295 296 298 297 297 297 297 296 296 295 295 295 293 294 296 294 290 291 289 289 292 289 286 282 285 286 280 284 288 284 285 289 288 295 304 312 321 334 340 338 331 328
298 300 299 298 298 298 298 297 297 298 297 296 296 295 294 293 291 289 287 286 286 288 287 288 285 282 279 277 275 281 280 279 283 284 289 298 305 312 324 337 338 333 330
300 299 299 299 300 300 299 299 298 295 295 294 293 292 291 291 286 285 287 288 287 281 284 290 288 282 278 273 271 272 274 273 275 280 283 291 298 303 316 328 338 334 329
304 304 304 304 304 303 302 301 299 298 297 296 293 291 289 288 286 282 275 278 276 276 290 290 289 276 277 268 265 265 267 267 270 274 278 283 290 297 306 323 330 336 333
307 307 307 307 305 304 302 301 300 299 298 298 297 295 295 292 284 283 276 271 268 278 284 284 285 267 262 270 270 261 260 261 264 268 275 278 283 288 297 312 323 329 335
309 309 308 307 306 305 305 304 303 302 301 300 300 299 297 294 291 288 268 270 269 277 271 275 279 274 261 252 259 265 266 267 262 261 265 270 275 280 287 302 313 321 329
310 310 310 311 311 311 310 310 309 308 307 306 305 303 301 299 298 293 284 267 265 271 272 278 273 278 271 262 257 250 259 267 264 257 256 260 270 277 281 290 300 311 318
314 315 315 315 315 314 313 312 311 310 309 308 307 304 301 298 296 295 276 272 259 256 269 273 273 275 273 267 257 255 251 256 257 257 256 258 265 272 278 284 285 296 307
317 317 316 316 315 315 315 314 313 312 312 311 309 306 303 301 291 294 281 273 263 263 264 260 273 275 272 264 257 247 246 248 251 256 254 258 261 266 272 277 274 279 292
317 317 317 318 317 316 316 315 315 316 315 314 311 307 300 302 297 286 286 279 277 237 247 261 266 259 264 256 259 248 245 242 243 252 254 258 264 267 266 267 268 265 274
318 319 319 318 317 317 317 318 318 318 317 316 315 311 304 290 287 290 281 266 269 257 249 246 248 251 261 270 233 224 227 231 240 251 255 258 261 257 261 262 260 259 259
319 319 320 318 318 319 320 320 320 320 318 317 316 315 312 300 292 281 283 276 252 236 228 238 246 251 256 261 266 256 251 245 248 258 268 274 260 251 247 255 256 254 255
Height
3112 3112 3110 3109 3109 3107 3105 3103 3100 3098 3094 3091 3086 3082 3078 3073 3069 3064 3060 3055 3050 3046 3043 3038 3034 3030 3026 3021 3017 3013 3009 3004 2999 2996 2990 2984 2979 2973 2969 2965 2961 2957 2953
3106 3105 3105 3104 3103 3100 3099 3097 3095 3092 3088 3084 3079 3074 3070 3065 3060 3056 3051 3046 3042 3039 3036 3031 3027 3022 3018 3014 3010 3006 3002 2996 2991 2986 2981 2976 2971 2966 2960 2955 2952 2948 2943
3101 3101 3100 3098 3096 3094 3092 3090 3087 3083 3080 3075 3071 3066 3061 3056 3052 3048 3043 3039 3035 3030 3027 3024 3019 3016 3012 3008 3004 2999 2994 2988 2983 2977 2972 2968 2963 2957 2952 2948 2944 2940 2936
3096 3094 3093 3091 3089 3087 3085 3082 3079 3074 3071 3066 3061 3056 3051 3047 3043 3040 3037 3034 3029 3024 3019 3017 3014 3010 3006 3002 2997 2993 2987 2981 2976 2970 2965 2960 2955 2951 2945 2940 2938 2933 2930
3087 3086 3085 3083 3082 3079 3077 3073 3068 3064 3059 3054 3049 3046 3042 3039 3036 3033 3029 3026 3022 3017 3013 3010 3007 3004 3000 2995 2991 2985 2979 2974 2968 2963 2959 2954 2949 2944 2939 2934 2929 2926 2923
3080 3079 3077 3076 3073 3070 3066 3063 3058 3053 3047 3042 3039 3039 3037 3032 3029 3026 3022 3018 3015 3011 3007 3003 3000 2996 2992 2988 2983 2978 2973 2967 2962 2957 2952 2947 2943 2937 2933 2928 2923 2918 2915
3072 3071 3070 3067 3064 3059 3056 3051 3046 3041 3036 3034 3034 3033 3029 3025 3023 3019 3015 3011 3007 3004 3000 2996 2992 2989 2985 2980 2976 2971 2966 2960 2955 2950 2946 2941 2937 2932 2927 2922 2918 2913 2909
3064 3062 3060 3058 3054 3050 3045 3041 3036 3030 3030 3029 3030 3025 3021 3019 3016 3012 3008 3004 3000 2996 2993 2989 2985 2981 2977 2973 2969 2964 2960 2955 2950 2946 2941 2937 2932 2927 2921 2917 2912 2908 2906
3056 3054 3052 3049 3045 3041 3032 3025 3028 3029 3025 3026 3021 3017 3014 3012 3007 3003 3000 2996 2993 2990 2986 2982 2978 2974 2971 2967 2962 2958 2955 2950 2946 2942 2937 2933 2928 2922 2916 2912 2908 2904 2902
3048 3047 3044 3040 3035 3033 3029 3027 3026 3024 3021 3017 3012 3009 3007 3004 2999 2996 2992 2989 2986 2983 2979 2975 2971 2967 2964 2960 2956 2953 2950 2946 2942 2938 2934 2928 2923 2918 2913 2908 2903 2900 2897
3041 3039 3036 3032 3031 3028 3024 3022 3019 3015 3011 3008 3005 3002 2999 2995 2991 2988 2984 2981 2978 2975 2972 2968 2964 2961 2957 2953 2950 2947 2944 2941 2937 2934 2930 2925 2920 2914 2909 2905 2900 2896 2893
3033 3031 3030 3028 3024 3020 3017 3013 3010 3006 3002 3000 2996 2994 2990 2987 2983 2979 2976 2972 2969 2966 2963 2960 2956 2954 2950 2947 2944 2941 2938 2936 2933 2930 2926 2921 2916 2911 2906 2901 2897 2893 2889
3025 3024 3021 3019 3015 3012 3008 3004 3001 2998 2994 2991 2988 2985 2982 2978 2974 2970 2966 2963 2960 2956 2954 2951 2948 2946 2943 2940 2937 2935 2932 2930 2928 2925 2922 2918 2913 2908 2903 2899 2894 2890 2887
3018 3015 3013 3010 3007 3004 3000 2997 2993 2990 2986 2982 2979 2975 2972 2968 2964 2960 2956 2953 2950 2947 2944 2941 2939 2937 2936 2933 2930 2928 2926 2924 2922 2920 2917 2914 2910 2906 2901 2896 2892 2888 2884
3012 3009 3006 3004 3001 2998 2994 2990 2986 2982 2977 2973 2969 2964 2960 2958 2955 2950 2946 2943 2939 2936 2933 2931 2929 2928 2926 2925 2923 2921 2919 2917 2916 2915 2912 2909 2906 2902 2898 2893 2889 2885 2881
3007 3003 3000 2997 2993 2989 2984 2981 2978 2973 2968 2963 2958 2952 2950 2946 2943 2939 2935 2932 2929 2926 2921 2920 2919 2918 2917 2916 2915 2913 2912 2911 2910 2908 2906 2904 2901 2899 2895 2890 2886 2882 2879
2999 2997 2993 2989 2985 2980 2975 2970 2965 2964 2957 2953 2946 2941 2936 2933 2930 2926 2923 2919 2916 2913 2910 2909 2908 2907 2906 2906 2906 2905 2904 2904 2903 2902 2900 2898 2897 2894 2891 2887 2884 2880 2877
2992 2988 2984 2979 2975 2969 2964 2958 2951 2945 2940 2937 2932 2925 2921 2917 2914 2911 2909 2907 2901 2898 2898 2898 2897 2897 2896 2896 2896 2896 2896 2896 2896 2896 2894 2893 2891 2890 2887 2884 2881 2878 2875
2983 2979 2974 2969 2964 2957 2951 2944 2937 2930 2923 2917 2912 2908 2903 2898 2894 2893 2892 2890 2888 2887 2887 2886 2885 2884 2886 2887 2886 2886 2887 2888 2888 2888 2888 2887 2886 2885 2883 2880 2878 2875 2873
2974 2969 2964 2958 2951 2945 2938 2930 2923 2915 2908 2902 2896 2890 2886 2880 2877 2876 2877 2875 2874 2874 2873 2875 2875 2874 2875 2876 2877 2878 2878 2879 2880 2881 2881 2881 2880 2879 2878 2876 2875 2873 2870
2964 2958 2952 2945 2938 2930 2923 2915 2907 2900 2893 2887 2882 2877 2873 2868 2864 2862 2861 2861 2862 2863 2864 2864 2865 2865 2865 2866 2867 2869 2870 2872 2872 2873 2874 2874 2874 2874 2873 2872 2871 2870 2868
2953 2946 2939 2932 2924 2917 2909 2902 2895 2888 2882 2875 2870 2866 2862 2858 2855 2852 2851 2850 2850 2853 2854 2855 2855 2855 2855 2855 2857 2859 2861 2863 2865 2866 2867 2868 2868 2868 2867 2867 2867 2866 2865
2942 2935 2928 2920 2912 2905 2898 2891 2884 2878 2872 2866 2860 2855 2851 2848 2846 2844 2842 2842 2843 2843 2844 2845 2845 2846 2846 2847 2848 2849 2852 2855 2857 2859 2860 2861 2862 2862 2862 2862 2862 2862 2861
2931 2924 2916 2909 2901 2894 2888 2881 2875 2869 2862 2857 2851 2847 2843 2840 2838 2836 2835 2834 2832 2833 2835 2836 2838 2838 2839 2839 2840 2841 2844 2847 2850 2852 2853 2854 2855 2856 2856 2857 2857 2857 2857
2920 2913 2906 2899 2892 2885 2879 2872 2866 2861 2855 2849 2844 2839 2835 2832 2831 2829 2827 2827 2826 2826 2827 2829 2830 2832 2833 2833 2834 2835 2837 2839 2842 2844 2845 2847 2848 2849 2850 2851 2851 2852 2853
2909 2903 2896 2889 2883 2877 2870 2864 2859 2853 2847 2842 2837 2832 2828 2824 2822 2821 2820 2819 2818 2817 2818 2820 2823 2825 2826 2827 2828 2829 2831 2833 2834 2835 2837 2838 2839 2841 2843 2844 2845 2846 2847